Simultaneous Nadir Overpasses (SNOs) Predictions

Prediction of SNOs between NOAA-19 and TERRA Satellite Orbit:

Table of predicted SNOs for the next 14.0 days since TLE Epoch: 5/21/2022
Index Date (NOAA-19) Time (NOAA-19) Lat,Lon (NOAA-19) SZA (NOAA-19 ) Date (TERRA) Time (TERRA) Lat,Lon (TERRA) SZA (TERRA ) Distance(km) Time Diff (sec)
1 05/22/2022 21:39:27 -80.76, 71.03 117.85 05/22/2022 21:39:17 -80.76, 71.09 117.85 1.06 10
2 05/25/2022 03:12:26 80.77, 167.54 61.72 05/25/2022 03:12:54 80.76, 167.61 61.73 1.77 28
3 05/25/2022 04:03:23 -80.76, -24.65 118.25 05/25/2022 04:02:21 -80.75, -24.81 118.29 2.85 62
4 05/27/2022 08:45:20 -80.77, -95.60 118.67 05/27/2022 08:46:30 -80.77, -95.73 118.66 2.46 70
5 05/27/2022 09:36:21 80.76, 71.99 61.36 05/27/2022 09:35:56 80.76, 71.89 61.34 1.68 25
6 05/29/2022 15:09:16 -80.77, 168.59 119.02 05/29/2022 15:09:33 -80.76, 168.45 119.03 2.55 17
7 05/31/2022 20:42:16 80.78, -94.91 60.64 05/31/2022 20:43:08 80.78, -94.79 60.67 2.14 52
8 05/31/2022 21:33:12 -80.77, 72.72 119.34 05/31/2022 21:32:35 -80.78, 72.85 119.34 2.54 37



Historial Predications of SNOs between NOAA-19 and TERRA
